STARLINK-11372, 61576

Orbit data source: Space-Track

STARLINK-11372, 61576 is a payload satellite owned by SpaceX/Seattle (US) in LEO that was launched on Fri, 18 Oct 2024 UTC via an FALCON 9 launch vehicle from the Air Force Eastern Test Range (AFETR). Payload-class satellites include a variety of spacecraft equipped with specific instruments for various scientific and technological missions. These include communications satellites like Starlink; space stations such as the ISS; scientific satellites like the Hubble; Earth observation satellites from companies like Planet Labs, Umbra, and HawkEye 360; GPS; miniature CubeSats for education and research; and military/defense satellites.

Loading next visibility...
Identifier
61576, 2024-187C
Orbit
LEO
Country
Flag of USUS
Related business
Manufacturer
SpaceX/Seattle
Mission
Operational Commercial Communications
Bus & Motor
STARLINK V2MD, Unknown motor
Mass
960 kg wet, ~910 kg dry
Launch date (UTC)
2024-10-18 (2 years ago)
Launch vehicle
FALCON 9
Launch site
Air Force Eastern Test Range (AFETR)
Object type
Payload
Rocket body
Debris
Shape & HBR
Box + 2 Pan, 18.1 m
Radar Cross Section
36.964 m², Large (>1 m²)

Expand to show TLE details & history
Last TLE update: 15 hours ago

TLE from 15 hours ago
0 STARLINK-11372
1 61576U 24187C   26171.21070938  .00000941  00000-0  12625-4 0  9998
2 61576  53.1600 150.7716 0001072  86.0227 274.0913 15.69711141 96854
Epoch: 2026-06-20T05:03Z
TLE epoch observation values (Epoch: 2026-06-20T05:03:25.290Z)
Latitude
-0.00006°
Longitude
166.48759°
Altitude
360.587 km
Speed
7.694 km/s
True Right ascension
10h 03m 05s
True Declination
0° 00' 00"
Sunlit
Object was in daylight at epoch
Visualization orbit readout
Latitude
Unknown
Longitude
Unknown
Altitude
Unknown
Speed
Unknown
Apparent Right ascension
Unknown
Apparent Declination
Unknown
Sunlit
N/A
Visualization observer readout
Local Sidereal Time
07:17:42
Azimuth
Unknown
Elevation
Unknown
Doppler factor
Unknown
Orbital elements
Apogee altitude
360.706 km
Perigee altitude
359.262 km
Semi-major axis
6,738.121 km
Eccentricity
0.00011
Inclination
53.16°
RAAN
150.7716°
Arg. of periapsis
86.0227°
True anomaly
274.07905°
Mean anomaly
274.0913°
Eccentric anomaly
274.08517°
Mean motion
3.92405 °/min
Orbital period
91.74 mins
BSTAR
0.000012625
Loading maneuver chart data...
Computing Atmospheric mass density...
Loading historical data...
Loading historical data...
Loading historical data...
Loading historical data...
Loading historical data...
Loading historical data...
Loading historical data...

Documentation

Showing up to 5 results
|